Wind_Speed
23 23 22 20 20 21 20 19 19 20 18 16 15 15 14 13 13 12 12 12 11 11 12 12 12 13 13 14 14 14 14 14 15 15 15 15 15 14 14 14 14 13 13 13
23 23 22 23 23 22 21 20 20 20 18 17 16 15 14 13 12 12 12 12 12 12 13 12 12 12 13 13 14 15 15 15 16 16 15 14 14 15 15 14 14 14 13 13
23 23 24 23 23 22 21 21 21 20 18 17 16 15 15 14 13 12 12 12 12 12 13 13 13 13 12 12 13 15 15 15 15 16 15 14 13 13 13 13 14 14 14 13
26 25 25 24 23 22 22 22 22 20 18 17 16 14 16 15 14 13 12 12 12 12 13 13 14 13 13 13 13 14 15 14 14 15 15 13 12 13 12 13 14 14 13 13
26 26 25 24 23 23 23 23 22 20 19 18 16 15 16 15 14 13 13 13 13 13 12 13 14 14 14 13 13 13 15 15 14 14 15 14 13 13 13 13 14 13 13 13
26 26 26 25 25 25 25 23 22 21 19 19 18 17 16 17 15 14 14 14 14 13 13 13 14 14 14 14 13 13 13 14 15 15 15 15 14 14 13 13 14 14 13 13
27 27 27 27 27 27 26 24 22 20 20 19 19 18 17 17 16 16 16 15 14 13 13 13 13 13 13 13 13 14 14 15 15 16 16 16 15 15 14 14 15 15 14 13
26 27 27 27 27 26 24 24 22 19 18 19 20 18 17 17 16 16 16 15 15 14 14 14 14 14 14 14 14 14 14 15 16 16 16 16 16 16 15 14 15 15 15 15
26 26 27 27 26 26 25 25 23 21 19 17 18 18 17 17 17 16 16 16 15 15 14 14 15 15 15 15 15 15 15 15 15 16 17 17 17 16 16 15 14 15 15 15
27 26 27 27 27 27 26 24 24 22 20 17 17 17 16 16 16 16 16 16 16 15 14 14 14 15 15 15 15 16 16 15 16 16 16 17 17 17 16 16 15 16 16 16
27 26 27 29 29 27 27 26 24 22 21 17 14 15 16 15 15 15 15 16 16 15 15 14 15 15 16 15 15 15 15 15 14 15 16 16 17 16 16 15 15 16 16 16
27 26 26 27 28 27 27 25 24 23 22 19 15 15 16 15 15 15 15 15 15 15 15 15 15 14 15 15 14 14 15 15 14 14 15 16 16 16 15 16 16 16 16 16
29 29 28 28 29 29 28 27 25 23 21 19 16 15 16 15 15 15 15 15 14 14 14 15 15 14 14 14 14 14 15 15 16 16 16 16 16 16 15 15 16 16 15 15
29 29 28 26 25 27 28 26 25 24 22 19 17 15 15 14 14 15 15 14 14 14 15 15 16 15 15 15 15 15 16 16 16 16 17 17 16 16 15 16 16 16 15 15
30 29 28 27 26 25 26 25 25 24 22 20 18 16 15 15 15 15 15 14 14 14 15 15 16 16 16 16 16 16 17 16 17 17 17 18 17 17 17 17 17 17 15 15
30 29 28 27 27 26 26 26 26 25 23 21 20 18 16 15 15 15 14 14 14 14 14 15 15 16 16 16 17 17 17 18 18 18 18 18 18 19 18 18 18 18 17 16
29 28 28 27 28 28 29 27 26 25 23 22 21 19 17 16 15 14 14 15 15 14 14 15 15 15 16 16 16 17 18 18 18 19 18 18 19 19 19 20 20 19 18 18
30 29 28 28 30 31 29 27 26 25 24 22 21 20 19 17 16 16 15 15 14 15 15 15 16 16 16 16 16 16 17 17 18 18 18 18 20 20 21 21 21 20 20 19
30 30 30 29 29 29 28 27 26 25 23 22 22 21 20 18 17 16 16 15 15 15 15 16 16 15 16 16 17 16 17 17 18 19 18 19 19 20 21 21 21 21 20 20
31 31 31 31 29 29 28 26 25 24 23 22 22 21 20 19 18 18 17 16 15 16 15 15 15 15 15 16 17 18 17 17 18 19 20 20 20 20 20 20 20 20 20 21
32 32 31 30 29 28 27 25 24 25 23 22 22 22 22 21 20 19 18 17 16 16 16 15 16 16 16 16 16 16 16 17 17 18 18 19 19 20 20 20 20 20 20 20
32 32 33 30 28 29 27 26 26 24 22 21 22 23 23 21 20 19 19 18 18 17 17 17 17 16 16 16 16 16 16 16 16 17 17 18 18 19 19 19 20 20 19 19
32 32 32 31 30 28 27 26 25 23 23 22 22 22 22 22 21 20 19 19 19 18 18 18 17 17 17 17 16 16 16 16 16 17 17 17 17 19 19 20 20 20 20 21
32 30 29 29 29 27 27 26 25 24 23 22 22 22 21 21 21 21 21 20 20 19 20 19 18 18 18 17 17 18 18 18 18 18 18 18 18 19 19 20 21 21 22 23
31 30 29 28 27 27 27 26 26 26 25 23 22 21 21 21 20 21 21 22 22 21 20 20 20 19 19 20 19 19 19 18 19 19 18 19 19 20 20 21 22 22 23 23
32 31 30 29 28 26 25 26 26 26 25 24 23 22 22 21 21 21 21 21 21 21 21 21 21 21 20 20 20 20 21 20 19 19 19 19 20 20 21 21 22 23 23 24
Wind_Direction
230 229 228 226 224 223 224 224 228 233 238 241 242 243 248 252 256 263 265 266 264 263 261 260 257 256 255 251 248 245 239 236 236 234 233 232 231 233 234 232 231 230 229 229
227 226 224 223 222 222 221 222 227 234 236 237 239 242 246 249 256 262 263 262 261 260 259 258 256 257 254 251 246 241 238 238 237 234 233 236 237 237 235 234 234 233 230 230
225 223 222 222 221 220 219 220 225 231 234 235 237 243 248 248 254 259 259 260 260 260 260 259 255 254 252 253 246 239 238 239 237 235 236 237 239 235 234 235 235 235 232 233
221 221 220 220 219 218 219 220 223 228 229 235 235 237 248 250 255 259 256 254 258 261 260 259 255 251 250 251 250 241 237 237 234 231 233 235 239 238 237 234 234 234 235 234
222 221 219 219 217 216 217 220 222 226 228 233 239 235 245 251 253 255 255 255 260 263 260 257 255 253 252 252 250 246 238 234 234 235 234 236 238 240 239 236 234 234 236 236
219 218 217 215 215 215 217 219 223 227 231 236 240 241 243 250 250 252 255 257 261 262 258 256 255 251 252 253 251 246 241 236 237 238 238 240 241 242 238 235 234 235 237 237
217 216 215 214 215 216 216 216 221 228 233 236 240 242 244 247 248 250 255 257 259 260 256 256 254 250 249 249 248 245 242 240 240 241 241 241 242 243 240 238 239 237 237 238
217 216 216 215 215 218 217 216 217 224 235 238 245 245 248 250 247 248 253 257 259 258 255 254 251 248 247 246 245 243 242 241 240 241 242 241 242 244 242 243 241 238 239 240
214 216 216 216 214 215 217 215 217 223 228 234 246 247 249 249 249 248 252 255 257 256 252 251 251 248 247 248 246 245 243 243 241 240 243 241 241 243 242 243 242 240 240 240
213 214 216 215 214 214 215 217 218 219 224 231 246 250 248 248 250 250 251 253 253 254 252 253 251 248 249 249 247 249 246 243 243 242 244 239 240 241 241 242 243 242 240 240
212 212 215 216 216 218 218 218 220 223 226 228 244 251 247 249 250 250 252 254 253 252 250 249 251 248 247 247 247 244 243 244 242 242 242 235 235 238 240 240 242 243 242 240
212 211 216 218 218 218 221 222 223 225 230 229 233 250 250 248 249 250 253 255 254 253 248 248 250 248 244 242 243 242 241 242 241 243 239 234 235 238 243 243 243 244 242 240
213 212 213 217 219 218 219 220 222 223 229 234 233 245 251 246 247 248 251 253 251 250 248 246 245 244 242 241 241 242 241 242 243 243 240 238 237 240 245 244 242 241 240 240
215 215 213 217 222 223 221 221 221 222 226 234 234 236 244 242 245 248 251 252 249 248 247 244 244 243 242 241 243 244 243 244 244 243 243 239 238 240 242 241 238 238 239 239
214 215 214 213 217 222 223 222 223 226 226 229 236 237 238 240 243 247 252 252 250 248 246 244 243 242 240 240 241 243 244 244 242 242 241 238 238 240 242 241 239 239 240 244
215 215 216 217 218 219 222 223 225 227 227 228 232 236 236 240 240 245 250 250 248 248 245 242 240 240 239 239 240 243 245 244 242 242 240 237 239 241 242 240 240 241 242 246
215 215 215 217 218 218 220 221 224 226 227 229 233 234 234 237 240 243 245 247 245 242 243 240 237 238 239 240 242 244 245 244 241 239 239 239 241 241 240 240 240 243 245 246
215 214 215 216 218 220 220 221 223 226 226 227 230 230 231 235 241 242 244 245 242 241 242 237 234 238 240 242 244 244 245 244 241 238 238 240 242 242 241 240 240 244 244 245
214 214 215 216 220 220 222 221 222 225 225 226 227 227 231 235 239 241 243 244 245 244 242 237 236 239 244 245 244 243 246 246 242 240 242 244 243 241 239 239 240 242 243 243
215 213 215 216 218 222 223 221 222 226 226 224 224 225 228 232 238 240 243 244 245 242 240 238 240 244 247 247 244 244 248 248 246 245 245 245 242 239 239 240 240 241 243 245
212 212 214 217 221 223 221 218 220 226 226 225 225 227 230 233 237 241 241 241 243 240 241 243 247 248 250 247 243 245 248 247 246 247 246 244 243 242 241 240 239 240 244 247
210 213 215 218 220 222 219 217 219 225 225 225 227 230 231 233 237 239 239 239 239 240 244 247 249 249 249 246 244 248 247 247 246 245 245 244 244 244 243 241 240 242 244 246
210 212 215 217 220 222 219 219 220 224 225 226 228 231 231 233 236 238 238 238 240 241 245 246 248 248 246 246 247 248 247 246 245 242 242 243 245 245 244 242 242 243 246 249
214 216 217 218 220 219 218 217 219 223 225 228 229 230 233 235 236 238 237 238 242 243 246 245 246 247 246 245 245 246 247 246 244 245 246 247 247 246 246 246 247 249 251 253
215 216 217 219 219 219 219 220 221 224 226 228 229 231 233 233 234 237 238 240 243 245 245 246 249 250 249 248 248 248 247 246 247 248 249 249 248 247 248 250 252 253 255 257
213 214 215 216 218 219 219 220 221 224 227 228 229 231 233 235 236 236 238 240 243 244 245 245 247 251 252 253 251 250 249 250 249 249 250 249 248 249 251 253 254 256 257 258
Height
5825 5829 5833 5837 5841 5844 5846 5849 5852 5853 5854 5857 5859 5860 5861 5862 5863 5863 5864 5864 5864 5864 5864 5864 5864 5865 5865 5866 5867 5868 5869 5870 5872 5873 5874 5875 5876 5878 5878 5879 5880 5881 5883 5884
5821 5824 5828 5831 5835 5838 5842 5845 5848 5849 5851 5854 5856 5857 5858 5859 5860 5860 5861 5861 5861 5861 5861 5861 5862 5862 5862 5863 5863 5865 5866 5867 5869 5870 5871 5872 5873 5875 5876 5877 5878 5879 5880 5882
5816 5821 5823 5826 5830 5834 5838 5842 5844 5846 5848 5850 5853 5855 5855 5856 5857 5857 5858 5858 5858 5858 5858 5858 5859 5859 5860 5860 5860 5862 5863 5864 5865 5867 5868 5870 5871 5872 5873 5874 5876 5877 5878 5879
5810 5814 5818 5821 5826 5830 5834 5837 5839 5842 5845 5848 5850 5853 5853 5853 5854 5854 5855 5855 5855 5855 5855 5855 5856 5856 5857 5858 5858 5859 5860 5861 5863 5864 5866 5867 5868 5870 5871 5872 5873 5874 5876 5877
5805 5809 5813 5817 5822 5826 5830 5832 5835 5838 5841 5844 5846 5849 5851 5850 5850 5851 5851 5852 5852 5852 5852 5852 5853 5854 5854 5855 5856 5856 5857 5859 5860 5862 5863 5865 5866 5867 5868 5870 5871 5872 5874 5875
5800 5804 5808 5813 5817 5821 5824 5828 5831 5834 5838 5841 5843 5845 5847 5847 5847 5848 5848 5848 5848 5849 5849 5849 5850 5851 5851 5852 5853 5854 5855 5857 5858 5860 5861 5863 5864 5865 5866 5867 5869 5870 5871 5872
5795 5799 5803 5808 5812 5815 5820 5825 5829 5832 5835 5838 5839 5840 5843 5843 5843 5844 5844 5845 5845 5845 5846 5846 5847 5847 5848 5849 5850 5851 5852 5854 5855 5857 5858 5860 5861 5862 5863 5864 5865 5867 5868 5869
5791 5795 5799 5803 5808 5812 5816 5822 5827 5831 5833 5835 5834 5836 5838 5838 5839 5840 5840 5841 5841 5842 5842 5843 5843 5844 5845 5846 5847 5848 5849 5850 5852 5853 5855 5857 5858 5859 5860 5861 5863 5864 5865 5867
5787 5792 5796 5799 5804 5808 5812 5816 5822 5826 5829 5831 5831 5832 5833 5834 5835 5836 5836 5837 5837 5838 5839 5839 5840 5841 5842 5842 5843 5845 5846 5847 5848 5850 5851 5853 5855 5856 5857 5859 5860 5861 5863 5864
5782 5788 5791 5795 5799 5803 5808 5812 5816 5820 5823 5827 5828 5828 5830 5830 5830 5831 5832 5833 5833 5834 5835 5835 5836 5837 5838 5839 5840 5841 5842 5844 5845 5846 5848 5849 5851 5853 5854 5856 5857 5858 5860 5861
5777 5783 5787 5790 5794 5799 5803 5807 5811 5816 5819 5824 5826 5828 5825 5826 5827 5827 5828 5828 5829 5830 5831 5831 5832 5833 5833 5835 5836 5837 5838 5840 5841 5843 5844 5846 5848 5850 5851 5853 5854 5855 5856 5858
5772 5778 5782 5786 5791 5795 5799 5803 5807 5812 5814 5817 5822 5825 5821 5822 5822 5823 5824 5824 5825 5826 5826 5827 5828 5829 5829 5831 5832 5833 5835 5836 5838 5839 5841 5842 5844 5846 5848 5849 5850 5852 5853 5855
5767 5772 5777 5781 5786 5789 5793 5797 5802 5806 5809 5813 5817 5821 5816 5817 5818 5819 5819 5820 5821 5821 5822 5823 5824 5825 5826 5827 5829 5830 5832 5833 5834 5836 5838 5839 5841 5843 5844 5846 5847 5848 5850 5851
5763 5767 5773 5779 5781 5785 5788 5793 5797 5801 5804 5808 5811 5814 5813 5813 5814 5814 5815 5816 5817 5817 5818 5819 5820 5821 5823 5824 5825 5827 5828 5830 5831 5832 5834 5836 5838 5839 5841 5842 5844 5845 5847 5848
5756 5762 5767 5772 5776 5780 5784 5788 5792 5795 5800 5804 5807 5808 5809 5809 5810 5810 5811 5812 5812 5813 5814 5815 5816 5817 5819 5820 5822 5823 5824 5826 5827 5828 5830 5832 5834 5835 5837 5839 5840 5842 5843 5845
5751 5757 5762 5766 5770 5775 5779 5782 5786 5790 5794 5798 5801 5803 5804 5804 5805 5806 5807 5808 5808 5809 5810 5811 5812 5813 5815 5816 5817 5819 5820 5821 5823 5824 5826 5828 5830 5831 5833 5835 5837 5839 5840 5841
5746 5751 5756 5761 5765 5769 5773 5777 5781 5785 5789 5792 5795 5798 5799 5800 5801 5802 5803 5804 5804 5805 5806 5807 5808 5809 5811 5812 5813 5814 5816 5817 5818 5820 5822 5824 5825 5827 5829 5831 5833 5835 5836 5837
5741 5746 5751 5756 5760 5763 5769 5771 5776 5779 5783 5786 5789 5791 5794 5795 5797 5798 5799 5800 5800 5801 5802 5803 5804 5805 5807 5808 5809 5810 5811 5813 5814 5816 5818 5819 5821 5823 5825 5826 5829 5830 5832 5833
5735 5741 5746 5750 5754 5758 5763 5766 5770 5774 5777 5781 5783 5786 5789 5790 5792 5794 5795 5796 5797 5798 5798 5799 5800 5802 5803 5804 5805 5806 5807 5809 5810 5812 5814 5815 5817 5818 5820 5822 5824 5826 5827 5829
5729 5734 5740 5744 5749 5753 5758 5762 5765 5770 5772 5775 5778 5781 5784 5786 5788 5790 5790 5792 5793 5794 5795 5796 5797 5798 5799 5800 5801 5802 5803 5805 5806 5808 5809 5811 5813 5814 5816 5818 5819 5821 5823 5824
5723 5728 5733 5738 5743 5747 5752 5756 5761 5765 5768 5770 5773 5776 5779 5781 5783 5785 5786 5787 5788 5790 5791 5792 5793 5794 5795 5796 5797 5798 5799 5801 5802 5803 5805 5807 5809 5810 5812 5813 5815 5816 5818 5819
5717 5722 5727 5732 5737 5743 5746 5751 5755 5759 5762 5765 5768 5771 5773 5776 5778 5779 5781 5783 5784 5785 5787 5788 5789 5790 5792 5793 5794 5795 5796 5797 5798 5799 5801 5802 5804 5806 5807 5809 5810 5812 5813 5814
5711 5716 5721 5727 5732 5736 5741 5745 5749 5753 5756 5759 5762 5765 5768 5770 5772 5774 5776 5778 5779 5781 5782 5784 5785 5786 5788 5789 5790 5791 5792 5793 5794 5796 5797 5798 5800 5802 5803 5804 5806 5807 5808 5809
5705 5710 5716 5721 5725 5730 5735 5739 5744 5747 5751 5754 5757 5760 5762 5764 5767 5769 5771 5773 5774 5776 5778 5779 5781 5782 5783 5784 5785 5787 5787 5788 5790 5791 5793 5794 5795 5797 5798 5799 5800 5802 5803 5804
5700 5705 5710 5715 5720 5725 5729 5734 5738 5742 5745 5748 5751 5754 5757 5759 5761 5763 5765 5767 5769 5771 5773 5774 5776 5777 5779 5780 5780 5782 5782 5783 5785 5786 5787 5789 5790 5792 5793 5794 5795 5796 5797 5798
5694 5700 5706 5710 5715 5720 5724 5728 5732 5736 5739 5743 5746 5749 5751 5754 5756 5758 5760 5761 5763 5765 5767 5769 5770 5772 5773 5774 5775 5776 5778 5779 5780 5781 5783 5784 5785 5786 5788 5789 5790 5790 5792 5792